Glenwood, MN

8:54 PM CDT on April 30, 2017 (GMT -0500)
Glenwood Municipal

Weather History for KGHW - May, 2013

Change the Weather History Date:

Tuesday, May 28, 2013

  Actual Average Record
Temperature  
Mean Temperature 58 °F -  
Max Temperature 62 °F 74 °F 98 °F (2006)
Min Temperature 53 °F 50 °F 5 °F (2000)
Degree Days  
Heating Degree Days 8    
Growing Degree Days 8 (Base 50)    
Moisture  
Dew Point 54 °F    
Average Humidity 92    
Maximum Humidity 100    
Minimum Humidity 77    
Precipitation  
Precipitation 0.00 in - - ()
Sea Level Pressure  
Sea Level Pressure 29.75 in    
Wind  
Wind Speed 8 mph (SE)    
Max Wind Speed 14 mph    
Max Gust Speed -    
Visibility 5 miles    
Events Fog    
Averages and records for this station are not official NWS values.
T = Trace of Precipitation, MM = Missing Value Source: NWS Daily Summary

Daily Weather History Graph

Daily Weather History Graph

Search for Another Location

Airport or City:

Trip Planner

Search our weather history database for the weather conditions in past years. The results will help you decide how hot, cold, wet, or windy it might be!

Date:

Astronomy

May. 28, 2013 Rise Set
Actual Time 5:37 AM CDT 8:59 PM CDT
Civil Twilight 5:01 AM CDT 9:36 PM CDT
Nautical Twilight 4:13 AM CDT 10:24 PM CDT
Astronomical Twilight 3:12 AM CDT 11:25 PM CDT
Moon No Moon Rise 9:32 AM CDT (5/28)
Length of Visible Light 16h 35m
Length of Day
15h 22m
Waning Gibbous, 82% of the Moon is Illuminated
May 28
Waning Gibbous
May 31
Last Quarter
Jun 8
New
Jun 16
First Quarter
Jun 23
Full

Hourly Weather History & Observations

Time (CDT) Temp. Dew Point Humidity Pressure Visibility Wind Dir Wind Speed Gust Speed Precip Events Conditions
12:13 AM 55.4 °F 53.6 °F 94% 29.83 in 10.0 mi ESE 11.5 mph - N/A   Overcast
12:33 AM 55.4 °F 53.6 °F 94% 29.82 in 4.0 mi East 10.4 mph - N/A   Overcast
12:53 AM 55.4 °F 53.6 °F 94% 29.81 in 5.0 mi East 11.5 mph - N/A   Overcast
1:14 AM 55.4 °F 53.6 °F 94% 29.79 in 2.5 mi East 10.4 mph - N/A   Overcast
1:33 AM 53.6 °F 53.6 °F 100% 29.80 in 2.5 mi East 9.2 mph - N/A   Overcast
1:53 AM 53.6 °F 53.6 °F 100% 29.80 in 2.5 mi ESE 9.2 mph - N/A   Overcast
2:14 AM 53.6 °F 53.6 °F 100% 29.81 in 3.0 mi ESE 8.1 mph - N/A   Overcast
2:33 AM 53.6 °F 53.6 °F 100% 29.82 in 1.5 mi SE 3.5 mph - N/A   Overcast
2:53 AM 53.6 °F 53.6 °F 100% 29.81 in 1.2 mi East 3.5 mph - N/A   Overcast
3:14 AM 53.6 °F 53.6 °F 100% 29.79 in 1.2 mi East 6.9 mph - N/A   Overcast
3:33 AM 53.6 °F 53.6 °F 100% 29.78 in 2.0 mi East 8.1 mph - N/A   Overcast
3:53 AM 53.6 °F 53.6 °F 100% 29.78 in 2.0 mi East 8.1 mph - N/A   Overcast
4:13 AM 53.6 °F 53.6 °F 100% 29.77 in 2.5 mi East 11.5 mph - N/A   Overcast
4:33 AM 53.6 °F 53.6 °F 100% 29.76 in 1.8 mi East 8.1 mph - N/A   Overcast
4:54 AM 53.6 °F 53.6 °F 100% 29.77 in 1.5 mi East 4.6 mph - N/A   Overcast
5:13 AM 53.6 °F 53.6 °F 100% 29.76 in 2.0 mi East 5.8 mph - N/A   Overcast
5:33 AM 53.6 °F 53.6 °F 100% 29.75 in 2.5 mi East 6.9 mph - N/A   Overcast
5:54 AM 53.6 °F 53.6 °F 100% 29.75 in 1.8 mi East 5.8 mph - N/A   Overcast
6:13 AM 53.6 °F 53.6 °F 100% 29.75 in 3.0 mi East 6.9 mph - N/A   Overcast
6:33 AM 53.6 °F 53.6 °F 100% 29.75 in 2.0 mi ESE 5.8 mph - N/A   Overcast
6:54 AM 53.6 °F 53.6 °F 100% 29.74 in 0.5 mi East 9.2 mph - N/A Fog Fog
7:13 AM 53.6 °F 51.8 °F 94% 29.74 in 1.5 mi ESE 10.4 mph - N/A   Overcast
7:33 AM 53.6 °F 53.6 °F 100% 29.74 in 0.5 mi ESE 11.5 mph - N/A Fog Fog
7:54 AM 53.6 °F 53.6 °F 100% 29.73 in 0.2 mi East 8.1 mph - N/A Fog Fog
8:13 AM 53.6 °F 53.6 °F 100% 29.73 in 0.2 mi East 8.1 mph - N/A Fog Fog
8:33 AM 53.6 °F 53.6 °F 100% 29.72 in 0.2 mi East 10.4 mph - N/A Fog Fog
8:54 AM 53.6 °F 53.6 °F 100% 29.72 in 1.5 mi ESE 12.7 mph - N/A   Overcast
9:13 AM 53.6 °F 53.6 °F 100% 29.72 in 0.8 mi East 11.5 mph - N/A   Overcast
9:33 AM 53.6 °F 53.6 °F 100% 29.72 in 1.5 mi East 13.8 mph - N/A   Overcast
9:53 AM 55.4 °F 53.6 °F 94% 29.72 in 4.0 mi East 13.8 mph - N/A   Overcast
10:13 AM 55.4 °F 53.6 °F 94% 29.72 in 3.0 mi East 10.4 mph - N/A   Overcast
10:33 AM 55.4 °F 53.6 °F 94% 29.76 in 5.0 mi Calm Calm - N/A   Overcast
10:53 AM 55.4 °F 53.6 °F 94% 29.75 in 7.0 mi SE 5.8 mph - N/A   Overcast
11:13 AM 55.4 °F 53.6 °F 94% 29.76 in 7.0 mi SSE 4.6 mph - N/A   Overcast
11:33 AM 55.4 °F 53.6 °F 94% 29.76 in 7.0 mi SSE 5.8 mph - N/A   Overcast
11:53 AM 55.4 °F 53.6 °F 94% 29.76 in 7.0 mi SSE 4.6 mph - N/A   Overcast
12:13 PM 55.4 °F 53.6 °F 94% 29.76 in 7.0 mi South 4.6 mph - N/A   Overcast
12:33 PM 55.4 °F 53.6 °F 94% 29.75 in 5.0 mi SE 3.5 mph - N/A   Overcast
12:53 PM 55.4 °F 53.6 °F 94% 29.75 in 5.0 mi SSE 3.5 mph - N/A   Overcast
1:13 PM 57.2 °F 53.6 °F 88% 29.75 in 7.0 mi SE 4.6 mph - N/A   Overcast
1:34 PM 57.2 °F 53.6 °F 88% 29.75 in 5.0 mi SSE 3.5 mph - N/A   Overcast
1:53 PM 57.2 °F 53.6 °F 88% 29.75 in 7.0 mi Calm Calm - N/A   Overcast
2:13 PM 57.2 °F 53.6 °F 88% 29.75 in 5.0 mi Calm Calm - N/A   Overcast
2:34 PM 57.2 °F 53.6 °F 88% 29.76 in 5.0 mi WSW 4.6 mph - N/A   Overcast
2:53 PM 57.2 °F 53.6 °F 88% 29.76 in 5.0 mi Calm Calm - N/A   Overcast
3:13 PM 57.2 °F 53.6 °F 88% 29.75 in 5.0 mi Calm Calm - N/A   Overcast
3:34 PM 59.0 °F 55.4 °F 88% 29.75 in 7.0 mi Calm Calm - N/A   Overcast
3:53 PM 60.8 °F 55.4 °F 82% 29.75 in 7.0 mi East 3.5 mph - N/A   Overcast
4:13 PM 60.8 °F 55.4 °F 82% 29.74 in 7.0 mi ESE 3.5 mph - N/A   Overcast
4:34 PM 62.6 °F 55.4 °F 77% 29.74 in 10.0 mi Calm Calm - N/A   Overcast
4:53 PM 60.8 °F 55.4 °F 82% 29.74 in 10.0 mi SSE 4.6 mph - N/A   Overcast
5:13 PM 62.6 °F 55.4 °F 77% 29.74 in 10.0 mi South 4.6 mph - N/A   Overcast
5:34 PM 62.6 °F 55.4 °F 77% 29.74 in 10.0 mi South 4.6 mph - N/A   Overcast
5:53 PM 62.6 °F 55.4 °F 77% 29.74 in 10.0 mi South 5.8 mph - N/A   Overcast
6:13 PM 62.6 °F 55.4 °F 77% 29.74 in 10.0 mi South 3.5 mph - N/A   Overcast
6:34 PM 60.8 °F 55.4 °F 82% 29.74 in 10.0 mi SSE 5.8 mph - N/A   Mostly Cloudy
6:53 PM 60.8 °F 55.4 °F 82% 29.74 in 10.0 mi SSE 5.8 mph - N/A   Scattered Clouds
7:13 PM 60.8 °F 55.4 °F 82% 29.74 in 10.0 mi South 6.9 mph - N/A   Mostly Cloudy
7:33 PM 62.6 °F 55.4 °F 77% 29.74 in 10.0 mi SE 4.6 mph - N/A   Scattered Clouds
7:53 PM 62.6 °F 55.4 °F 77% 29.73 in 10.0 mi SE 6.9 mph - N/A   Clear
8:13 PM 60.8 °F 55.4 °F 82% 29.72 in 10.0 mi ESE 5.8 mph - N/A   Clear
8:34 PM 59.0 °F 55.4 °F 88% 29.72 in 10.0 mi SE 5.8 mph - N/A   Clear
8:53 PM 57.2 °F 53.6 °F 88% 29.72 in 10.0 mi SE 4.6 mph - N/A   Clear
9:13 PM 55.4 °F 53.6 °F 94% 29.72 in 10.0 mi SE 5.8 mph - N/A   Clear
9:33 PM 55.4 °F 53.6 °F 94% 29.74 in 7.0 mi SE 6.9 mph - N/A   Clear
9:53 PM 55.4 °F 53.6 °F 94% 29.75 in 7.0 mi SSE 6.9 mph - N/A   Clear
10:13 PM 55.4 °F 53.6 °F 94% 29.76 in 5.0 mi SSE 8.1 mph - N/A   Clear
10:33 PM 55.4 °F 53.6 °F 94% 29.75 in 5.0 mi SE 5.8 mph - N/A   Clear
10:53 PM 53.6 °F 51.8 °F 94% 29.75 in 4.0 mi ESE 4.6 mph - N/A   Clear
11:13 PM 53.6 °F 51.8 °F 94% 29.74 in 4.0 mi ESE 5.8 mph - N/A   Clear
11:33 PM 53.6 °F 51.8 °F 94% 29.74 in 3.0 mi SE 4.6 mph - N/A   Clear
11:53 PM 53.6 °F 51.8 °F 94% 29.76 in 3.0 mi SSE 8.1 mph - N/A   Clear